Probability
0 0 0 0 0 0 0 0 0 0 0 0 0 0 10 32 35 48 61 74 71 77 65 68 71 68 68 71 71 71 74 84 84 74 68 65 68 65 71 71 61 55 58 61
0 0 0 0 0 0 0 0 0 0 0 0 0 0 13 35 39 45 68 65 61 55 68 61 58 58 61 71 68 71 71 77 74 68 71 68 61 55 61 48 68 45 45 55
0 0 0 0 0 0 0 0 0 0 0 0 0 3 26 39 39 52 55 61 58 61 65 58 61 61 58 58 55 52 68 65 58 65 58 55 48 52 48 48 55 42 45 39
0 0 0 0 0 0 0 0 0 0 0 0 0 0 16 26 42 48 55 61 58 58 61 58 58 55 52 55 52 65 65 68 65 61 55 48 45 39 45 48 55 42 35 35
0 0 0 0 0 0 0 0 0 0 0 0 0 0 0 26 29 39 48 55 55 61 48 55 55 55 48 52 55 52 52 61 58 61 61 61 45 42 45 52 45 42 39 19
0 0 0 0 0 0 0 0 0 0 0 0 0 0 0 13 16 16 35 52 55 48 52 52 52 52 48 45 45 45 61 52 58 58 58 58 55 42 42 42 39 29 23 23
0 0 0 0 0 0 0 0 0 0 0 0 0 0 0 3 10 16 26 45 45 52 52 48 48 45 48 52 52 48 52 52 52 45 42 55 65 61 45 42 39 29 23 23
0 0 0 0 0 0 0 0 0 0 0 0 0 0 0 0 6 13 16 32 45 48 48 42 55 52 42 48 52 45 55 48 45 42 55 55 61 48 39 42 29 29 26 26
0 0 0 0 0 0 0 0 0 0 0 0 0 0 3 10 6 13 19 29 42 45 45 42 42 52 42 45 45 39 48 55 55 55 55 61 58 42 39 39 35 29 32 16
0 0 0 0 0 0 0 0 0 0 0 0 0 0 0 10 3 10 16 16 35 42 29 42 48 45 45 45 42 39 48 52 52 48 45 42 48 52 45 32 29 29 29 13
0 0 0 0 0 0 0 0 0 0 0 0 0 0 0 6 6 13 19 26 29 32 42 32 45 48 52 32 39 45 39 42 45 42 42 42 42 45 32 39 32 32 26 26
0 0 0 0 0 0 0 0 0 0 0 0 0 0 0 6 6 10 16 23 32 35 45 42 45 58 55 42 35 39 42 39 42 45 45 45 45 39 32 29 35 32 19 19
0 0 0 0 0 0 0 0 0 0 0 0 0 0 6 10 10 16 16 23 29 42 42 52 61 65 61 55 45 39 45 42 39 42 39 42 48 42 35 32 39 32 16 13
0 0 0 0 0 0 0 0 0 0 0 0 0 3 10 16 19 16 23 32 32 55 58 58 74 71 61 55 48 42 48 45 42 39 35 45 48 45 42 35 35 26 16 13
0 0 0 0 0 0 0 0 0 0 0 0 0 0 6 13 16 23 26 29 35 58 65 74 77 74 65 58 52 42 45 55 45 45 42 42 42 45 39 35 29 26 19 10
0 0 0 0 0 0 0 0 0 0 0 0 0 3 13 16 23 23 29 29 35 65 61 65 74 71 68 65 55 58 52 45 45 48 45 45 39 39 35 32 26 23 19 10
0 6 0 0 0 0 3 3 3 3 3 0 6 10 13 16 19 26 35 32 35 61 61 58 65 74 77 68 68 61 55 55 45 45 45 45 42 42 32 23 26 19 13 10
3 6 10 0 0 0 0 3 3 3 3 6 6 13 10 13 10 10 16 19 32 42 68 65 68 61 81 81 74 65 52 58 48 48 45 52 48 32 29 19 23 26 19 16
0 3 0 0 0 0 0 3 3 3 3 3 3 6 6 10 6 10 10 16 19 29 65 71 74 68 68 77 77 71 55 55 48 48 52 48 42 32 29 26 26 26 26 23
0 0 0 0 0 0 0 3 0 3 3 0 0 0 6 10 10 10 19 19 26 29 58 55 68 71 71 77 77 77 65 55 58 55 52 48 45 35 29 35 35 26 23 19
0 0 0 0 0 0 0 3 3 0 0 6 6 3 6 6 6 16 16 19 26 42 52 52 65 65 71 71 74 74 71 61 61 55 55 48 52 48 35 39 35 32 19 19
0 0 0 0 0 0 3 0 0 3 10 10 10 10 10 10 10 10 16 29 32 39 48 48 58 61 68 68 71 68 74 68 68 58 58 52 48 39 29 39 39 32 26 19
0 0 0 0 0 3 3 3 10 10 13 6 10 10 13 13 10 13 19 26 29 42 45 48 52 55 61 61 68 65 68 71 71 71 65 58 52 52 32 35 32 29 26 16
0 0 0 0 0 0 0 0 3 3 10 6 6 3 6 10 10 13 16 23 26 26 35 45 42 52 55 55 61 61 61 61 65 68 71 61 48 45 42 35 23 19 13 10
0 0 3 3 0 3 0 0 0 3 0 0 0 3 10 10 10 16 19 23 19 23 29 32 42 52 52 52 55 48 55 55 61 71 61 55 45 42 45 42 35 16 26 19
0 0 0 3 0 0 0 3 0 0 0 0 3 3 3 0 10 10 13 16 26 26 26 29 39 45 45 39 48 42 45 48 65 58 55 42 39 39 35 23 19 3 0 0
Height
5835 5838 5839 5841 5842 5844 5846 5847 5848 5848 5849 5850 5851 5851 5851 5851 5850 5850 5849 5848 5847 5846 5844 5843 5842 5841 5842 5843 5845 5847 5848 5851 5854 5857 5859 5862 5864 5867 5869 5872 5874 5876 5878 5880
5830 5832 5834 5835 5837 5839 5841 5843 5844 5845 5845 5846 5847 5848 5847 5847 5847 5846 5845 5844 5843 5842 5841 5839 5838 5838 5838 5840 5841 5843 5844 5848 5850 5854 5857 5859 5862 5864 5867 5869 5872 5874 5876 5878
5825 5828 5828 5830 5833 5835 5837 5839 5840 5841 5841 5843 5844 5845 5845 5844 5843 5842 5841 5840 5840 5839 5837 5836 5835 5834 5835 5837 5838 5839 5841 5844 5847 5850 5854 5856 5859 5862 5865 5867 5870 5872 5874 5876
5818 5821 5823 5825 5828 5831 5833 5835 5836 5837 5838 5840 5841 5843 5842 5840 5840 5839 5838 5837 5836 5835 5834 5833 5832 5831 5832 5834 5835 5837 5838 5841 5844 5847 5851 5854 5857 5860 5863 5865 5868 5870 5872 5875
5814 5816 5818 5821 5824 5826 5829 5830 5832 5833 5835 5837 5838 5839 5840 5837 5836 5836 5835 5834 5833 5833 5831 5830 5830 5830 5830 5831 5833 5835 5837 5839 5842 5845 5849 5851 5854 5857 5860 5863 5866 5868 5871 5873
5808 5811 5813 5816 5819 5821 5823 5826 5828 5830 5832 5834 5835 5835 5837 5834 5834 5833 5832 5832 5831 5830 5829 5828 5827 5827 5828 5830 5831 5833 5835 5837 5840 5843 5846 5849 5852 5854 5857 5861 5864 5866 5869 5872
5803 5806 5809 5812 5814 5817 5820 5823 5826 5828 5830 5832 5831 5831 5833 5831 5830 5830 5829 5829 5828 5827 5826 5825 5825 5825 5826 5828 5830 5832 5833 5836 5838 5841 5843 5846 5849 5852 5855 5859 5862 5864 5867 5870
5799 5802 5804 5807 5810 5813 5816 5820 5824 5827 5828 5829 5827 5828 5829 5827 5827 5826 5826 5825 5825 5824 5824 5823 5823 5824 5825 5826 5828 5830 5832 5834 5836 5838 5841 5844 5847 5850 5853 5857 5860 5863 5866 5868
5795 5799 5800 5803 5805 5809 5811 5814 5819 5821 5823 5824 5825 5825 5825 5824 5823 5823 5823 5822 5822 5821 5821 5821 5821 5822 5824 5825 5827 5829 5830 5832 5834 5836 5839 5842 5845 5848 5852 5855 5858 5861 5864 5866
5790 5794 5796 5798 5801 5803 5807 5810 5813 5816 5818 5821 5822 5822 5822 5820 5820 5820 5819 5819 5819 5819 5819 5819 5820 5821 5822 5824 5825 5827 5829 5830 5832 5834 5837 5840 5843 5846 5849 5853 5856 5859 5862 5864
5785 5789 5792 5794 5796 5800 5803 5805 5808 5812 5814 5817 5819 5821 5818 5817 5817 5817 5816 5816 5817 5817 5817 5817 5818 5819 5821 5822 5824 5826 5828 5829 5831 5833 5836 5838 5841 5844 5847 5850 5853 5857 5860 5862
5780 5785 5788 5790 5792 5794 5797 5801 5804 5807 5809 5811 5814 5818 5813 5813 5813 5813 5813 5814 5814 5815 5815 5816 5816 5818 5819 5821 5823 5825 5826 5828 5830 5832 5834 5836 5839 5842 5845 5848 5851 5854 5857 5860
5776 5780 5783 5786 5789 5791 5792 5795 5798 5801 5803 5806 5809 5814 5808 5808 5809 5810 5810 5811 5811 5812 5813 5813 5814 5816 5817 5819 5821 5823 5825 5827 5828 5830 5832 5835 5837 5840 5843 5846 5849 5852 5855 5858
5772 5775 5780 5784 5784 5785 5788 5790 5792 5795 5798 5801 5803 5806 5804 5804 5804 5805 5807 5807 5808 5809 5810 5811 5812 5813 5815 5817 5819 5821 5823 5825 5827 5829 5830 5833 5835 5838 5841 5844 5847 5850 5852 5855
5767 5770 5773 5776 5778 5780 5783 5785 5787 5789 5792 5795 5798 5799 5799 5798 5799 5801 5802 5804 5805 5806 5807 5808 5809 5811 5812 5814 5816 5818 5821 5823 5824 5826 5828 5830 5832 5835 5838 5841 5844 5847 5850 5852
5761 5764 5767 5770 5772 5774 5777 5779 5781 5783 5786 5788 5790 5792 5792 5793 5794 5796 5798 5800 5801 5802 5804 5805 5806 5808 5810 5811 5813 5815 5818 5820 5821 5823 5825 5827 5830 5833 5836 5838 5841 5844 5847 5849
5755 5758 5762 5764 5766 5768 5771 5773 5775 5777 5779 5782 5784 5786 5786 5788 5789 5791 5793 5795 5797 5798 5800 5801 5803 5805 5806 5808 5810 5812 5814 5816 5818 5820 5821 5824 5827 5830 5832 5835 5838 5841 5843 5845
5749 5752 5755 5758 5761 5763 5766 5766 5768 5770 5772 5774 5776 5778 5780 5782 5784 5786 5788 5790 5792 5794 5796 5797 5799 5801 5803 5805 5807 5809 5811 5813 5815 5816 5818 5821 5823 5826 5829 5832 5834 5837 5839 5842
5743 5746 5749 5752 5754 5756 5758 5760 5761 5763 5765 5767 5769 5771 5773 5776 5778 5780 5782 5784 5787 5789 5791 5793 5795 5797 5800 5802 5803 5805 5808 5810 5811 5813 5814 5817 5820 5823 5826 5828 5830 5833 5835 5837
5736 5739 5743 5745 5748 5750 5752 5753 5754 5758 5758 5760 5762 5765 5767 5769 5772 5774 5776 5779 5781 5784 5786 5788 5791 5793 5796 5798 5800 5802 5804 5806 5808 5810 5811 5813 5816 5819 5822 5824 5826 5828 5830 5831
5730 5733 5736 5739 5741 5743 5744 5746 5749 5752 5752 5754 5755 5758 5760 5763 5766 5768 5771 5773 5776 5778 5781 5783 5786 5789 5791 5793 5795 5798 5800 5802 5804 5806 5808 5810 5813 5815 5817 5819 5821 5823 5825 5826
5724 5727 5730 5733 5735 5738 5738 5740 5743 5744 5745 5747 5749 5752 5754 5757 5759 5762 5764 5767 5770 5773 5775 5778 5781 5784 5786 5788 5790 5793 5795 5797 5799 5801 5803 5806 5808 5810 5812 5813 5815 5817 5818 5819
5718 5722 5724 5727 5730 5731 5733 5734 5736 5738 5739 5741 5744 5746 5748 5751 5753 5756 5759 5762 5764 5767 5770 5773 5775 5778 5781 5783 5785 5787 5789 5791 5794 5796 5798 5800 5802 5804 5806 5807 5809 5810 5811 5812
5712 5715 5718 5721 5723 5725 5727 5728 5730 5732 5734 5736 5738 5740 5742 5745 5748 5750 5753 5756 5758 5761 5764 5767 5770 5772 5775 5777 5780 5782 5783 5785 5788 5790 5792 5794 5796 5797 5799 5801 5802 5803 5804 5804
5706 5710 5712 5715 5717 5719 5721 5723 5725 5727 5728 5730 5733 5735 5737 5739 5742 5744 5747 5750 5752 5754 5757 5760 5763 5766 5769 5771 5774 5776 5778 5780 5782 5784 5785 5787 5788 5790 5792 5793 5795 5796 5796 5797
5701 5704 5707 5710 5712 5714 5716 5717 5719 5721 5723 5725 5727 5729 5731 5734 5736 5739 5741 5743 5746 5748 5751 5754 5757 5759 5762 5765 5767 5769 5771 5773 5775 5777 5778 5780 5781 5783 5784 5785 5786 5787 5788 5788
Wind_Speed
20 19 18 18 18 19 18 17 16 17 16 15 15 15 15 15 14 14 14 13 13 13 13 13 12 12 15 17 18 19 20 21 21 22 21 20 19 19 18 17 16 14 12 10
20 19 19 20 19 19 18 17 16 17 17 16 15 15 15 15 14 14 14 13 12 13 13 13 12 13 14 16 18 19 19 21 22 21 20 20 19 19 19 18 17 15 13 11
20 20 21 21 20 19 17 16 16 16 16 15 14 13 14 15 15 14 13 13 13 13 13 12 11 12 14 16 17 17 19 21 22 22 21 21 20 19 19 18 16 15 14 12
23 23 22 21 20 18 17 17 16 16 15 14 13 11 14 14 13 13 12 12 12 12 11 10 10 9 12 13 15 16 17 19 21 21 21 21 20 19 18 18 17 15 14 12
23 23 22 21 19 18 18 18 17 16 15 14 14 12 12 14 12 12 11 11 10 10 9 9 9 9 11 13 13 15 16 17 20 20 20 21 21 20 18 18 17 15 14 13
24 23 22 21 21 19 19 18 17 16 15 14 14 12 11 12 11 11 11 11 11 10 9 9 9 10 11 12 13 14 15 17 18 19 20 20 21 20 19 18 17 15 14 13
24 23 23 22 21 20 19 18 16 15 14 13 14 12 11 12 11 11 12 12 11 10 10 9 9 9 12 12 13 14 14 16 17 18 18 19 21 20 19 18 17 15 15 14
22 22 22 22 21 20 19 18 17 15 14 13 14 13 12 12 11 11 12 11 10 9 9 8 9 10 10 12 12 13 15 16 17 18 18 19 20 20 19 18 17 16 15 15
22 21 22 22 21 21 20 20 18 17 15 13 13 13 12 11 11 12 11 11 10 9 8 8 9 10 11 11 11 12 14 15 17 18 18 18 19 19 20 19 18 17 16 15
22 22 22 21 21 21 21 20 20 18 15 14 12 12 11 11 11 11 11 11 10 9 8 8 9 10 10 11 11 11 12 12 14 16 17 18 19 20 20 19 19 18 17 15
22 21 21 21 21 21 21 21 20 19 18 14 12 11 12 11 11 11 11 11 10 9 8 7 8 9 10 10 10 10 11 12 14 15 15 17 19 20 20 19 18 18 17 16
23 22 21 22 22 21 21 20 20 20 19 16 13 13 15 12 12 11 11 11 11 10 10 9 9 9 10 10 10 10 11 12 13 15 15 16 18 19 19 19 19 19 18 17
22 22 22 21 21 21 21 21 21 20 19 18 15 14 17 15 14 13 12 11 11 11 11 10 10 10 11 11 11 12 12 12 13 13 15 15 17 18 19 19 19 19 18 17
23 22 21 20 20 22 21 21 21 21 20 19 17 17 18 18 16 15 13 12 12 12 11 11 11 11 11 12 12 13 13 13 13 13 15 16 17 18 19 19 19 19 19 18
23 22 22 23 23 23 22 22 22 23 22 20 18 19 20 20 18 17 15 13 13 13 12 12 12 12 12 12 13 13 14 14 14 14 15 17 17 19 19 20 20 20 19 19
23 23 22 22 23 24 23 23 23 24 23 21 20 21 22 21 20 18 16 15 15 14 13 13 13 13 13 13 13 15 15 15 15 15 16 17 18 19 20 21 21 21 20 20
25 24 23 23 23 23 23 23 23 24 23 22 22 22 22 22 21 20 18 18 17 16 15 15 15 14 14 14 14 15 16 15 16 16 17 18 19 20 21 21 21 22 22 21
25 25 24 24 24 24 24 24 24 24 24 24 24 23 23 24 23 22 21 20 19 18 17 16 16 16 15 15 16 16 16 16 16 16 17 19 19 20 21 22 22 23 23 23
27 25 23 23 23 24 24 23 23 24 25 25 24 24 24 24 24 24 23 21 20 20 19 18 18 17 17 16 17 17 17 17 17 17 18 19 20 20 21 23 24 24 24 24
25 24 23 23 22 22 23 22 22 23 25 24 24 24 24 25 25 25 25 23 22 21 20 20 18 18 18 18 18 18 18 18 18 19 19 20 21 21 21 22 23 24 24 25
25 24 23 22 21 23 23 21 21 22 23 22 23 23 23 25 25 25 25 25 23 22 21 21 20 20 20 19 19 19 20 20 20 21 21 21 21 22 23 24 24 25 25 26
24 24 23 22 22 23 21 20 21 21 21 21 22 23 23 24 24 24 25 24 23 23 23 23 22 22 22 21 20 20 21 22 22 22 22 22 22 23 24 25 26 26 27 28
24 23 22 22 23 22 20 21 20 20 21 21 21 22 23 23 24 24 25 24 24 24 24 25 24 23 23 22 21 21 22 23 23 23 24 24 24 25 25 26 27 27 27 27
24 22 22 22 22 21 20 20 20 20 19 20 20 21 22 23 23 24 25 25 25 25 25 26 25 25 24 24 23 23 24 25 26 25 26 26 26 27 27 27 27 27 28 29
24 23 22 22 21 20 20 20 20 20 20 19 21 21 22 22 23 23 24 25 26 26 25 25 26 26 26 26 25 25 25 26 27 27 26 27 28 27 28 29 29 29 30 30
23 22 21 22 21 20 20 20 20 20 20 21 20 21 21 22 22 23 24 25 25 25 25 25 25 26 26 27 26 26 26 26 27 27 28 28 29 29 29 30 30 30 31 32
Wind_Direction
251 249 249 248 245 243 246 246 249 253 260 262 266 270 274 278 279 282 282 281 280 284 283 279 274 257 239 231 230 227 223 220 220 219 221 220 219 218 217 215 215 216 217 218
247 244 243 243 242 243 244 246 248 253 259 262 266 269 273 277 279 280 278 275 277 280 282 281 271 258 243 231 231 226 221 217 218 219 220 217 216 215 213 213 215 216 216 215
241 239 240 241 240 241 242 245 246 250 258 263 266 269 271 274 279 280 278 275 277 279 279 281 278 253 235 227 228 226 223 218 218 218 217 214 214 216 214 214 215 217 215 213
235 237 238 238 238 238 239 242 244 250 254 260 266 266 272 276 280 279 277 276 278 280 281 281 273 248 229 221 222 219 217 215 216 216 214 213 211 213 214 214 214 214 211 205
235 236 236 235 236 235 233 237 242 248 253 257 268 268 273 278 281 277 275 274 278 283 284 277 266 238 222 215 216 215 215 214 215 214 212 210 211 212 213 212 210 210 204 201
231 233 232 231 232 232 233 237 242 249 254 256 262 266 272 276 277 275 276 278 279 284 282 275 262 240 220 213 214 215 216 212 211 214 213 213 211 210 210 209 209 207 204 203
232 232 231 230 232 234 234 235 241 248 252 254 257 263 267 269 269 270 276 278 277 279 276 270 255 239 220 217 217 218 217 211 210 213 211 211 209 209 208 208 207 206 206 208
230 231 232 231 231 235 237 234 233 238 248 252 258 261 267 270 271 272 276 277 275 277 272 263 248 237 225 222 221 221 218 213 213 212 211 209 208 208 208 207 206 207 208 208
222 225 230 229 229 230 233 233 234 238 243 247 254 262 268 270 270 272 274 272 271 274 269 257 242 233 228 225 222 221 219 217 213 213 212 210 208 206 207 207 207 207 208 207
218 221 228 228 228 229 230 233 235 236 240 246 255 263 265 267 270 269 267 266 267 265 261 248 239 231 225 222 223 224 221 218 212 211 210 208 207 205 206 207 207 207 206 207
216 217 225 226 227 230 231 232 233 237 239 242 249 259 260 259 261 265 264 263 260 256 251 245 237 229 223 221 222 223 222 218 212 210 209 208 207 207 207 207 205 205 207 208
215 215 220 227 228 228 230 232 235 238 245 245 243 254 255 251 252 258 259 259 255 250 246 245 238 231 225 222 222 224 223 218 212 211 212 211 210 208 207 207 207 208 209 212
215 217 219 228 233 232 232 234 236 239 244 248 245 248 253 248 250 254 257 256 252 247 245 242 238 232 226 223 226 226 225 218 214 215 216 215 211 208 206 207 209 210 213 216
223 223 221 226 233 238 237 239 240 242 245 248 243 238 249 250 249 250 252 253 248 244 242 239 236 231 227 226 226 226 226 224 221 221 219 216 213 210 209 211 213 214 216 218
225 228 229 230 233 239 242 242 243 243 244 244 244 243 244 247 249 249 249 250 244 241 240 235 230 224 222 222 224 224 224 224 223 224 221 219 215 213 213 215 216 216 218 221
228 230 233 237 238 241 243 243 243 244 245 244 243 242 239 241 245 247 245 244 242 239 237 232 229 225 225 224 223 222 225 226 227 227 224 222 220 218 217 217 219 221 223 225
232 236 238 242 242 244 244 242 242 244 244 244 243 241 238 238 239 242 243 241 239 238 236 231 229 229 229 227 225 225 226 226 227 227 225 222 222 221 220 220 223 225 228 231
234 239 240 242 244 243 244 243 243 244 244 243 242 240 238 237 239 241 241 239 236 236 236 235 232 232 233 232 230 230 227 225 226 226 225 224 223 223 224 226 229 231 234 237
234 237 238 238 241 244 246 244 243 243 244 242 241 239 237 236 238 239 238 237 236 236 237 238 235 233 234 234 234 233 228 227 227 227 225 224 225 227 229 232 234 236 239 242
234 234 238 238 237 242 245 242 241 241 243 240 239 236 235 234 237 238 236 235 235 237 236 236 234 233 234 235 236 234 229 228 228 227 226 227 228 231 234 236 238 241 244 247
234 235 238 239 238 241 242 240 239 241 242 238 236 233 234 234 236 237 235 234 235 235 234 233 232 233 235 236 237 234 232 231 231 231 232 233 235 237 238 240 243 246 249 252
232 234 235 235 237 241 237 238 238 240 241 238 236 235 234 235 235 234 232 233 235 234 233 233 233 235 236 237 238 237 235 233 234 235 237 238 240 242 243 245 247 250 253 256
229 230 229 230 235 239 238 237 237 238 238 237 235 235 233 233 233 232 231 231 234 234 234 234 234 236 236 237 238 238 237 237 238 239 240 241 244 246 249 250 251 253 255 259
227 228 229 230 233 236 236 236 235 235 236 234 234 234 233 234 233 231 232 232 234 235 235 233 235 237 236 237 237 238 240 240 241 242 242 243 246 248 251 253 254 256 258 261
226 227 227 229 233 234 234 235 235 236 236 235 234 233 233 234 232 230 232 235 236 235 235 236 237 237 236 238 240 241 242 242 242 242 244 246 248 250 252 254 256 259 262 265
226 226 226 229 232 234 234 235 236 237 239 239 235 232 231 232 233 232 233 234 235 235 235 236 238 238 238 240 242 243 245 244 243 244 246 248 250 251 254 256 258 260 263 266